GEFSSE_con_cape1000_006.txt.gz
Probability
26 97 100 100 100 94 87 68 55 48 94 97 100 100 100 100 100 100 100 100 100 100 100 100 100 100 100 100 100 100 100 100 100 100 100 100 100 100 100 100 61 68 100
23 97 100 100 100 97 94 90 81 61 94 100 100 100 100 100 100 100 100 100 100 100 100 100 100 100 100 100 100 100 100 100 100 100 100 100 100 100 100 100 61 61 87
52 97 100 100 100 100 97 97 90 84 100 100 100 100 100 100 100 100 100 100 100 100 100 100 100 100 100 100 100 100 100 100 100 100 100 74 97 100 100 100 100 100 94
65 84 97 100 100 100 100 97 97 97 97 100 100 100 100 100 100 100 100 100 94 94 100 100 100 100 100 100 100 100 100 100 100 100 100 94 94 100 100 100 100 100 100
32 58 100 100 100 100 100 100 100 100 100 100 100 100 100 100 100 97 94 94 87 71 94 100 100 100 100 100 100 100 100 100 100 100 100 100 84 100 100 100 100 100 100
19 81 100 100 100 100 100 100 100 100 100 100 100 100 100 100 100 100 97 100 100 97 84 94 100 97 97 97 100 100 100 100 100 100 100 100 58 100 100 100 100 100 100
19 97 100 100 100 100 100 100 100 100 100 100 100 100 100 100 100 100 100 100 100 100 97 84 90 94 100 97 97 100 100 97 97 97 77 71 74 100 100 100 100 100 100
58 100 100 100 100 100 100 100 100 100 100 100 100 100 100 100 100 100 100 100 100 97 90 87 90 100 100 100 100 100 100 100 90 94 97 84 94 100 100 100 100 100 100
87 100 100 100 100 100 100 100 100 100 100 100 100 100 100 100 100 100 100 100 100 100 100 100 87 84 100 100 100 100 100 100 100 94 84 39 100 100 100 100 100 100 100
94 97 100 100 100 100 100 100 100 100 100 100 100 100 100 100 100 100 100 100 100 100 100 100 100 100 100 100 100 100 100 100 100 77 42 10 87 100 100 100 100 100 100
97 94 84 77 84 100 100 100 100 100 100 100 100 100 100 100 100 100 100 100 100 100 100 100 100 100 100 100 100 100 100 97 55 23 0 0 74 100 100 100 100 100 100
84 71 55 26 29 39 94 100 100 100 100 100 90 100 100 65 48 100 100 100 100 100 100 100 100 100 100 100 100 100 100 52 29 0 0 6 97 100 100 100 100 100 100
35 42 16 6 3 3 6 13 19 19 45 42 29 35 45 45 35 77 26 90 100 100 100 100 100 100 90 68 39 16 19 16 3 0 0 6 97 100 100 100 100 100 100
10 16 13 0 0 0 0 0 0 0 6 13 19 32 29 26 26 13 10 6 23 45 65 19 19 32 39 3 3 0 0 0 0 0 0 32 100 100 100 100 100 100 100
3 3 3 0 0 0 0 0 0 0 3 16 48 71 71 26 3 0 0 0 0 0 0 3 0 0 3 0 0 0 0 0 0 0 0 6 100 100 100 100 100 100 100
0 0 0 0 0 0 0 3 0 0 3 3 3 23 23 3 0 0 0 0 0 0 0 0 0 0 0 0 0 0 0 0 0 0 0 0 100 100 100 100 100 100 100
0 0 0 0 0 0 6 6 0 0 0 0 0 0 0 0 0 0 0 0 0 0 0 0 0 0 0 0 0 0 0 0 0 0 0 0 0 65 100 100 100 100 100
3 0 3 6 19 26 55 45 13 0 0 3 0 0 6 3 0 0 0 0 0 0 0 0 0 0 0 0 0 0 0 0 0 0 0 0 0 0 23 100 100 100 100
16 16 19 48 100 97 94 68 39 23 16 10 26 32 45 58 16 0 0 0 0 0 0 0 0 0 0 0 0 0 0 0 0 0 0 0 0 0 0 0 94 97 100
23 39 39 45 81 100 94 74 42 39 55 55 48 52 45 35 39 0 0 0 0 0 0 0 0 0 0 0 0 0 0 0 0 0 0 0 0 0 0 0 0 3 87
77 52 65 74 90 94 87 87 61 52 52 87 71 48 16 3 10 3 0 0 0 0 0 0 0 0 0 0 0 0 0 0 0 0 0 0 0 0 0 0 0 0 0
94 87 94 97 90 61 48 45 61 74 77 65 35 0 0 0 0 0 0 0 0 0 0 0 0 0 0 0 0 0 0 0 0 0 0 0 0 0 0 0 0 0 0
87 87 84 81 65 42 26 26 26 29 23 10 0 0 0 0 0 0 0 0 0 0 0 0 0 0 0 0 0 0 0 0 0 0 0 0 0 0 0 0 0 0 0
26 23 23 16 26 19 10 10 3 6 0 0 0 0 0 0 0 0 0 0 0 0 0 0 0 0 0 0 0 0 0 0 0 0 0 0 0 0 0 0 0 0 0
0 0 3 3 6 3 0 0 0 0 0 0 0 0 0 0 0 0 0 0 0 0 0 0 0 0 0 0 0 0 0 0 0 0 0 0 0 0 0 0 0 0 0
0 0 0 0 3 0 0 0 0 0 0 0 0 0 0 0 0 0 0 0 0 0 0 0 0 0 0 0 0 0 0 0 0 0 0 0 0 0 0 0 0 0 0

GEFSSE_con_cape1000_012.txt.gz
Probability
0 45 94 65 61 61 84 100 100 100 100 100 100 100 100 97 97 100 100 100 100 100 100 100 100 100 100 100 100 100 100 100 97 100 100 100 100 100 100 97 87 94 100
0 58 97 71 68 68 87 97 100 100 100 100 100 100 100 100 100 100 100 100 100 100 100 100 100 100 100 100 100 100 100 100 97 97 100 100 100 100 94 26 74 77 90
0 71 97 94 77 71 77 94 100 100 100 100 100 100 100 100 100 100 100 100 100 100 100 100 100 100 100 100 100 100 100 100 90 84 94 87 100 100 100 32 26 58 61
0 77 87 94 77 77 81 90 97 100 100 100 100 100 100 100 100 100 100 97 97 100 87 94 97 100 100 100 100 100 100 100 100 84 65 55 84 90 100 100 74 35 16
6 74 84 90 87 87 87 90 100 100 100 100 100 100 100 100 100 94 94 87 94 87 87 97 100 97 100 100 100 100 100 100 100 100 97 97 77 90 100 100 100 97 48
26 68 87 94 94 90 87 87 100 100 100 100 100 100 100 90 77 65 68 77 68 48 81 100 100 100 97 100 100 100 100 100 100 100 100 100 97 100 100 100 100 100 97
0 29 97 100 100 97 97 100 100 100 100 100 100 100 100 97 87 39 39 74 97 94 74 94 100 97 100 97 94 97 94 94 94 97 94 87 84 100 100 100 100 100 100
3 48 100 100 100 100 97 100 100 100 100 100 100 100 100 100 100 100 97 97 100 97 90 87 84 97 100 100 100 100 100 90 65 29 81 100 94 100 100 100 100 100 100
3 68 97 100 100 100 100 100 97 100 100 100 100 100 100 100 100 100 100 100 97 100 94 94 84 90 100 100 100 100 100 100 97 100 77 77 61 100 100 100 100 100 100
23 81 94 94 100 100 100 100 100 100 100 100 100 100 100 100 100 100 100 100 100 100 100 100 100 100 100 100 100 100 100 100 100 100 81 45 68 81 100 100 100 100 100
42 87 90 84 35 52 90 100 100 100 100 100 100 100 100 100 100 100 100 100 100 100 100 100 100 100 100 100 100 100 100 100 74 55 32 16 32 58 87 100 100 100 100
26 87 84 71 19 19 90 94 97 100 100 100 100 100 100 97 68 100 97 100 100 100 100 100 100 100 100 100 100 100 100 100 68 26 13 32 61 71 90 100 100 100 100
6 58 87 77 26 23 32 23 74 90 97 100 100 87 65 52 32 65 61 61 68 87 97 100 100 97 100 100 94 77 48 48 39 16 3 58 94 94 97 97 100 100 100
32 42 65 65 32 16 13 13 52 39 48 55 35 23 16 16 23 23 23 19 13 16 19 39 35 23 29 42 48 26 16 19 13 3 0 29 90 97 100 100 100 100 100
65 52 58 35 19 16 10 0 10 19 19 29 26 19 16 16 13 13 13 13 10 10 6 10 10 13 13 13 6 3 3 0 0 0 0 3 84 97 100 100 100 100 100
74 55 32 16 10 3 0 0 0 3 3 3 6 13 13 6 10 10 13 6 3 0 0 0 0 3 3 3 0 0 0 0 0 0 0 0 6 97 100 100 100 100 100
71 52 26 6 0 0 0 0 0 0 0 0 3 3 13 13 16 16 6 6 3 0 0 0 0 0 0 0 0 0 0 0 0 0 0 0 0 0 87 100 100 100 100
45 32 16 23 0 0 0 0 0 0 0 0 0 0 0 6 10 13 10 6 3 0 0 0 0 0 0 0 0 0 0 0 0 0 0 0 0 0 0 81 100 100 100
26 19 16 19 6 0 0 0 0 0 0 0 0 0 0 0 0 6 6 3 0 0 0 0 0 0 0 0 0 0 0 0 0 0 0 0 0 0 0 0 35 90 97
16 19 10 10 6 0 0 0 0 0 0 0 0 3 3 3 10 3 0 0 0 0 0 0 0 0 0 0 0 0 0 0 0 0 0 0 0 0 0 0 0 0 26
10 10 3 3 0 0 0 0 3 0 0 0 0 0 3 3 10 0 0 0 0 0 0 0 0 0 0 0 0 0 0 0 0 0 0 0 0 0 0 0 0 0 0
3 6 0 0 3 10 13 6 6 0 0 0 0 0 0 0 0 0 0 0 0 0 0 0 0 0 0 0 0 0 0 0 0 0 0 0 0 0 0 0 0 0 0
29 29 10 10 10 19 10 3 0 6 3 0 0 0 0 0 0 0 0 0 0 0 0 0 0 0 0 0 0 0 0 0 0 0 0 0 0 0 0 0 0 0 0
23 29 19 3 0 16 6 6 10 3 3 0 0 0 0 0 0 0 0 0 0 0 0 0 0 0 0 0 0 0 0 0 0 0 0 0 0 0 0 0 0 0 0
13 13 10 3 3 3 3 3 3 0 0 0 0 0 0 0 0 0 0 0 0 0 0 0 0 0 0 0 0 0 0 0 0 0 0 0 0 0 0 0 0 0 0
0 0 0 3 0 3 3 0 0 0 0 0 0 0 0 0 0 0 0 0 0 0 0 0 0 0 0 0 0 0 0 0 0 0 0 0 0 0 0 0 0 0 0

GEFSSE_con_cape1000_018.txt.gz
Probability
0 0 13 84 100 100 100 100 100 100 100 100 100 97 100 100 100 100 100 100 100 100 100 100 100 100 100 97 97 97 97 100 100 100 94 97 100 100 94 68 84 71 81
0 6 19 94 100 100 100 100 100 100 100 100 100 100 100 100 100 97 97 100 100 100 100 100 100 97 97 90 87 71 87 94 94 90 94 84 81 74 58 42 77 87 58
0 6 3 97 100 100 100 100 100 100 100 100 100 100 100 100 100 97 97 94 90 87 100 100 94 97 94 84 74 55 52 77 81 84 77 23 23 45 23 10 48 65 35
3 6 0 94 100 100 100 100 100 100 100 100 100 100 100 100 100 97 97 97 65 65 74 81 94 100 97 84 74 52 52 35 35 35 3 0 3 81 87 26 19 39 19
6 10 26 90 97 100 100 100 100 100 100 100 100 100 100 100 100 90 90 90 58 55 55 71 81 87 100 94 87 74 61 35 35 3 0 13 16 81 87 94 71 23 16
19 6 35 90 97 100 100 100 100 100 100 100 100 100 100 97 97 84 71 71 42 32 45 58 81 87 94 94 100 97 97 87 68 10 6 19 35 97 100 100 100 97 90
23 13 26 94 97 100 100 100 100 100 100 100 100 100 97 90 65 58 45 45 42 35 29 52 84 97 97 87 90 90 84 77 74 13 42 52 74 100 100 100 100 100 100
58 39 48 90 94 100 100 100 100 100 100 100 100 100 97 90 65 35 29 35 65 90 87 77 74 84 84 90 100 94 94 81 3 3 10 32 90 100 97 100 100 100 100
42 55 81 35 90 97 97 100 100 100 100 100 100 100 100 97 97 97 90 87 84 94 87 84 74 61 74 90 100 100 100 97 42 6 3 26 87 94 94 97 100 100 100
52 77 84 61 58 58 45 100 100 100 100 100 100 100 100 100 100 100 100 100 97 94 97 94 94 90 97 97 97 97 100 90 3 3 23 74 94 74 84 100 100 100 100
81 100 90 87 90 71 10 52 97 100 100 100 100 100 100 100 94 100 81 97 94 97 97 100 100 100 100 100 100 100 100 32 0 3 6 42 84 58 81 94 97 100 100
97 97 100 100 100 81 29 71 84 71 97 100 100 100 100 100 100 77 55 97 100 100 100 100 100 100 100 100 100 100 94 65 39 23 32 77 90 90 94 97 97 97 100
100 100 100 100 100 97 87 81 77 87 100 100 100 100 100 100 100 84 87 100 100 100 97 100 100 97 90 94 97 81 71 55 68 61 42 97 100 100 100 100 100 100 100
97 94 94 100 100 100 100 100 100 100 100 100 100 100 100 100 97 87 100 81 94 100 100 100 100 97 97 97 97 90 94 100 97 94 100 100 100 100 100 100 100 100 100
94 94 97 100 100 100 100 100 100 100 100 100 100 100 100 100 100 87 100 100 100 100 100 100 100 100 100 97 97 97 94 97 97 97 100 100 100 100 100 100 100 100 100
94 100 100 100 100 100 100 100 100 100 100 100 100 100 100 100 100 100 100 100 100 100 97 97 97 100 100 100 100 97 97 97 97 97 97 100 100 100 100 100 100 100 100
87 97 100 100 100 100 100 100 100 100 100 100 100 100 100 100 100 100 100 100 100 100 100 100 100 100 100 100 100 100 97 97 97 97 97 97 97 97 100 100 100 100 100
100 100 100 100 100 100 100 100 100 100 94 97 100 100 100 100 100 100 100 100 100 100 100 100 100 100 100 100 100 100 97 97 97 97 97 97 97 97 97 100 100 100 100
100 100 100 100 100 100 100 100 100 100 100 100 100 100 100 100 100 100 100 100 100 100 100 100 100 100 100 100 100 100 97 94 97 94 97 94 97 97 94 94 100 100 100
100 100 100 100 100 100 100 100 100 100 100 100 100 100 100 100 100 100 100 100 97 97 100 100 100 100 100 100 90 68 74 48 58 71 77 68 87 74 71 77 94 94 100
100 100 100 100 100 100 100 100 100 100 100 94 90 97 97 97 90 97 97 97 97 94 97 97 94 84 84 77 48 29 16 13 32 65 61 35 10 13 32 68 84 94 97
100 100 100 100 100 100 100 100 100 100 94 90 90 84 68 58 65 58 65 74 77 87 90 94 74 55 29 13 23 16 0 0 42 0 29 29 10 6 13 35 94 97 97
97 100 100 100 100 100 100 100 100 100 94 84 81 65 48 42 32 32 26 39 45 45 42 52 42 35 23 13 16 19 6 0 0 0 6 6 35 39 13 48 84 97 97
81 97 100 100 100 100 100 100 100 100 90 71 61 48 39 19 10 6 6 10 6 16 26 16 0 19 39 19 16 55 48 23 10 0 0 0 29 29 26 6 19 48 77
65 77 84 100 100 100 100 100 100 97 84 68 61 42 26 13 0 0 0 0 6 10 13 6 16 10 13 13 10 16 19 52 32 23 0 23 32 35 32 32 23 16 16
29 42 52 94 100 97 94 94 94 87 90 68 52 32 19 10 0 0 0 3 6 10 10 10 6 6 6 19 32 19 26 23 32 39 19 26 48 55 32 26 16 13 6

GEFSSE_con_cape1000_024.txt.gz
Probability
3 6 100 100 100 100 100 100 100 94 90 90 90 97 97 94 94 100 100 100 100 100 100 100 100 84 71 61 81 94 100 100 100 97 97 94 87 87 87 84 94 26 87
6 10 100 100 100 100 100 100 100 97 94 97 97 97 94 84 74 84 87 90 94 100 100 97 100 68 42 32 42 58 81 71 39 29 35 48 61 55 52 65 97 48 65
3 13 100 100 100 100 100 100 100 97 97 97 97 97 97 87 68 58 61 61 65 65 68 77 71 65 45 13 16 16 39 35 23 19 77 39 32 48 26 39 61 58 35
0 3 71 100 100 100 100 100 100 100 100 100 100 100 97 84 71 39 39 26 19 23 35 52 61 68 39 13 6 3 3 19 32 48 58 84 19 61 45 3 10 10 6
0 0 100 100 100 100 100 100 100 100 100 100 100 100 97 94 84 71 48 39 19 13 10 19 26 65 74 55 32 13 13 6 23 23 13 35 32 74 94 48 10 10 6
0 3 100 100 100 100 100 100 100 100 100 100 100 100 100 94 90 77 68 42 29 26 19 23 29 48 77 90 87 81 68 52 48 26 3 10 29 94 100 100 87 61 48
3 29 84 100 100 100 100 100 100 100 100 100 100 97 97 97 87 77 65 39 29 26 29 39 68 65 84 87 94 94 97 94 94 74 65 68 90 100 100 100 100 97 97
13 19 55 100 100 100 100 100 100 100 100 100 100 94 97 94 84 74 65 52 48 39 52 52 74 81 87 94 100 100 100 100 61 13 39 81 100 100 100 97 100 100 100
26 39 13 90 100 100 100 100 100 100 100 100 100 100 97 97 90 84 87 81 77 74 87 87 87 90 94 94 100 100 100 100 100 13 6 35 100 100 97 97 100 100 100
65 58 19 29 94 94 97 100 100 100 100 100 100 100 100 97 97 97 97 97 94 100 100 100 94 97 97 100 100 100 100 100 100 6 0 23 97 100 100 97 100 100 100
84 84 48 23 71 71 48 90 100 100 100 100 100 100 100 100 97 97 97 100 100 100 100 100 100 100 100 100 100 100 100 100 29 3 16 77 100 100 100 100 100 100 100
100 94 90 74 74 65 19 71 84 94 100 100 100 100 100 100 100 100 100 100 100 100 100 100 100 100 100 100 100 100 100 94 77 45 77 100 100 100 100 100 100 100 100
100 100 97 94 100 84 71 90 77 65 97 97 97 100 100 100 100 100 100 100 100 100 100 100 100 100 100 97 97 97 97 100 97 97 100 100 100 100 100 100 100 100 100
100 100 100 100 100 100 100 97 97 97 97 97 100 100 100 100 100 100 100 100 100 100 100 100 100 100 100 100 100 97 97 97 94 97 100 100 100 100 100 100 100 100 100
100 100 100 100 100 100 100 100 100 100 97 100 100 100 100 100 100 100 100 100 100 100 100 100 100 100 100 100 100 100 100 97 100 100 100 100 100 100 100 100 100 100 100
100 100 100 100 100 100 100 100 100 100 100 100 100 100 100 100 100 100 100 100 100 100 100 100 100 100 100 100 100 100 100 100 100 100 100 100 100 100 100 100 100 100 100
100 100 100 100 100 100 100 100 100 100 100 100 100 100 100 100 100 100 100 100 100 100 100 100 100 100 100 100 100 100 100 100 100 100 100 100 100 100 100 100 100 100 100
100 100 100 100 100 100 100 100 100 100 100 100 100 100 100 100 100 100 100 100 100 100 100 100 100 100 100 97 94 100 97 100 100 100 100 100 100 97 100 100 100 100 100
100 100 100 100 100 100 100 100 100 100 100 100 100 100 100 100 100 100 100 100 100 100 100 97 97 94 90 81 81 84 90 97 97 100 100 100 100 100 100 100 100 100 100
100 100 100 100 100 100 100 100 100 100 100 100 100 100 100 100 100 100 100 100 100 100 100 97 94 90 87 74 55 52 81 90 90 87 94 87 90 94 94 94 97 97 100
100 100 100 100 100 100 100 100 100 100 100 100 100 97 97 100 100 100 100 100 100 100 97 94 90 84 77 74 52 42 55 58 65 74 81 84 84 90 94 94 94 97 97
97 97 100 100 100 100 100 100 100 100 100 100 100 100 94 97 97 87 87 90 97 97 97 90 77 81 65 48 32 23 16 16 42 52 90 94 90 90 90 81 84 100 97
81 84 90 100 100 100 100 100 100 100 100 100 100 100 97 97 87 87 81 81 87 87 77 77 74 68 48 26 26 23 10 13 45 48 84 90 97 97 84 77 87 90 94
39 45 74 94 97 100 100 100 100 100 100 100 100 100 94 87 81 77 74 74 68 71 65 55 39 35 23 19 13 16 13 29 35 29 61 77 74 74 74 39 32 61 87
16 23 45 61 94 100 100 97 100 100 100 100 100 100 100 87 81 77 74 71 68 61 52 45 39 32 19 13 10 10 13 32 45 26 3 29 45 65 77 81 61 58 58
10 13 19 39 81 97 97 97 100 100 100 100 97 97 97 90 84 74 68 65 61 48 48 42 32 23 10 10 10 10 13 26 32 23 13 16 16 52 71 77 52 52 23

GEFSSE_con_cape1000_030.txt.gz
Probability
0 94 100 100 100 97 97 97 87 90 94 97 100 100 100 100 100 100 100 100 100 100 100 100 97 97 97 100 100 100 100 100 100 94 94 90 97 97 97 97 90 81 94
3 94 100 100 100 100 100 94 90 90 90 97 97 100 100 100 100 100 100 100 100 100 100 100 90 84 58 65 74 87 84 84 87 71 45 45 81 90 94 97 84 74 81
10 97 100 100 100 100 100 94 94 90 97 97 97 97 100 100 100 100 100 97 94 94 90 81 71 42 16 19 19 35 32 26 26 26 10 3 45 77 87 97 94 84 68
39 94 100 100 100 100 100 97 94 94 97 97 97 97 97 100 94 84 84 84 77 58 58 68 68 32 13 3 3 3 0 0 0 10 6 3 6 58 87 90 90 74 48
26 77 100 100 100 100 100 97 97 97 97 100 97 97 97 97 90 81 65 61 45 39 39 45 55 65 48 29 23 16 13 6 6 3 3 0 0 42 90 87 90 74 52
10 84 100 100 100 100 100 97 97 97 97 100 100 97 97 97 94 84 74 71 61 48 35 39 58 81 87 84 77 74 61 45 39 23 3 0 0 13 94 100 97 94 77
29 87 100 100 100 100 100 100 100 100 100 100 100 100 97 97 97 90 87 84 84 68 65 71 81 81 94 97 97 97 97 87 81 68 23 0 0 35 97 100 100 94 94
35 94 100 100 100 100 100 100 100 100 100 100 100 100 100 100 100 100 97 90 84 77 77 77 90 94 100 100 100 100 100 100 90 68 23 0 0 68 97 100 100 100 94
16 71 100 100 100 100 100 100 100 100 100 100 100 100 100 100 100 100 100 100 97 97 97 100 100 100 100 100 100 100 100 100 97 71 39 0 0 97 100 100 100 100 100
3 48 94 100 100 100 100 100 100 100 100 100 100 100 100 100 100 100 100 100 100 97 100 100 100 100 100 100 100 100 100 100 97 90 55 16 65 97 100 100 100 100 100
0 13 74 90 87 90 100 100 100 100 100 100 100 100 100 100 97 100 100 100 100 100 100 100 100 100 100 100 100 100 100 94 84 71 23 45 94 100 100 100 100 100 100
0 0 55 65 68 58 87 97 100 100 100 100 100 100 100 94 90 94 94 100 100 100 100 100 100 100 100 100 100 100 100 97 77 52 32 90 100 100 100 100 100 100 100
0 0 0 32 29 39 19 19 77 87 87 94 94 97 100 100 94 100 94 94 100 100 100 100 100 100 100 97 90 74 65 65 58 45 55 100 100 100 100 100 100 100 100
10 3 0 6 13 13 0 3 29 39 58 77 81 84 87 97 97 90 90 94 97 97 100 100 100 100 97 94 81 55 35 39 48 29 39 100 97 100 100 100 100 100 100
39 29 3 10 10 6 6 6 6 6 10 42 45 39 77 97 100 100 100 97 97 97 97 100 97 94 90 84 74 71 77 81 87 58 58 100 100 100 100 100 100 100 100
74 68 42 32 19 32 32 42 32 26 29 29 48 35 35 77 100 100 100 97 100 97 97 97 94 90 94 90 90 81 84 87 94 94 77 90 100 100 100 100 100 100 100
90 94 81 65 68 71 87 94 90 90 81 81 81 71 68 74 90 100 100 100 100 100 94 87 94 87 84 81 84 77 71 61 61 68 71 77 90 97 100 97 97 100 100
94 97 97 97 94 90 94 97 100 100 97 100 97 97 100 94 90 100 100 100 100 100 100 94 74 71 61 55 48 39 29 23 32 29 32 45 77 87 94 97 97 97 100
87 90 81 84 90 94 97 97 97 97 100 100 100 100 100 100 100 97 97 100 97 81 74 74 58 52 52 48 32 26 23 19 10 10 13 13 35 77 81 90 100 100 100
71 74 74 71 81 87 87 94 97 97 100 100 100 97 100 100 100 100 97 90 81 68 65 61 61 42 39 29 26 23 10 6 3 3 3 6 3 16 39 71 84 94 100
68 68 65 68 77 84 87 94 100 100 100 97 97 97 94 94 90 90 84 77 74 68 65 58 48 39 29 19 16 13 6 3 3 3 3 3 3 0 0 29 45 68 81
52 68 65 71 77 77 77 81 94 94 97 97 97 94 87 90 87 81 74 61 65 61 55 55 42 39 29 16 6 3 0 0 0 3 3 0 0 0 0 0 0 26 26
48 55 58 58 61 58 68 65 74 77 77 77 81 84 84 84 77 71 65 52 52 52 52 52 45 32 16 10 3 3 0 0 0 0 0 0 0 0 0 0 0 0 0
35 42 55 55 45 52 42 32 29 45 48 61 65 74 74 68 68 71 58 52 52 42 39 35 32 26 16 13 3 3 3 0 0 0 0 0 0 0 0 0 0 0 0
13 26 29 29 23 29 32 19 23 26 19 26 26 29 32 35 52 55 58 48 42 29 26 16 13 13 10 6 3 3 3 0 0 0 0 0 0 0 0 0 0 0 0
10 13 16 13 16 19 13 10 10 10 6 10 6 6 6 10 19 32 42 42 35 23 19 13 10 3 3 0 0 0 0 0 0 0 0 0 0 0 0 0 0 0 0